Date,TemperatureHighF,TemperatureAvgF,TemperatureLowF,DewpointHighF,DewpointAvgF,DewpointLowF,HumidityHigh,HumidityAvg,HumidityLow,PressureMaxIn,PressureMinIn,WindSpeedMaxMPH,WindSpeedAvgMPH,GustSpeedMaxMPH,PrecipitationSumIn
2013-3-1,70.7,55.6,47.1,60.5,49.6,45.1,98,83,45,30.18,29.91,15,4,15,0.00
2013-3-2,67.6,55.7,50.2,54.6,49.7,47.8,98,81,54,29.97,29.79,20,6,20,0.00
2013-3-3,55.2,50.4,47.7,50.5,48.1,45.4,98,92,80,29.85,29.79,26,14,26,0.00
2013-3-4,54.0,48.2,46.2,45.9,43.6,40.8,95,85,66,29.91,29.82,24,7,24,0.00
2013-3-5,56.3,50.1,44.1,46.5,41.4,39.2,88,73,57,29.85,29.59,35,6,35,1.14
2013-3-6,54.5,51.0,47.1,49.1,42.5,37.8,92,73,55,29.79,29.59,34,7,34,1.05
2013-3-7,56.7,48.6,44.8,46.3,41.9,36.3,95,78,51,29.76,29.59,17,4,17,0.04
2013-3-8,52.9,49.3,46.8,46.7,43.4,41.1,95,80,67,29.79,29.59,42,14,42,0.33
2013-3-9,60.4,51.6,45.3,47.1,43.2,39.0,94,74,49,30.06,29.79,24,8,24,0.33
2013-3-10,64.4,52.4,47.1,53.2,46.6,40.5,95,82,47,30.12,30.00,20,6,20,0.33
2013-3-11,69.1,52.7,46.0,55.0,47.3,41.9,98,84,43,30.03,29.82,22,6,22,0.33
2013-3-12,64.9,51.4,46.6,61.3,49.0,46.0,98,92,69,29.88,29.79,23,8,23,0.33
2013-3-13,73.8,53.3,45.3,66.1,49.6,44.8,98,89,46,29.91,29.79,20,7,20,0.33
2013-3-14,55.0,49.9,46.4,52.5,47.9,45.7,98,93,78,29.91,29.82,23,11,23,0.00
2013-3-15,67.1,52.9,48.2,54.8,49.4,47.7,98,89,61,29.91,29.79,26,9,26,0.00
2013-3-16,61.3,51.9,47.3,58.0,47.6,44.6,98,86,65,29.88,29.79,27,8,27,0.00
2013-3-17,62.2,52.7,48.4,46.5,43.8,40.2,87,73,48,29.91,29.79,26,9,26,0.00
2013-3-18,59.9,51.3,46.6,48.6,45.2,43.1,94,81,56,29.85,29.76,24,7,24,0.00
2013-3-20,59.7,54.6,49.6,55.1,52.0,48.5,98,92,68,29.88,29.82,15,6,15,0.04
2013-3-21,57.9,50.9,44.2,49.3,41.9,36.4,98,73,49,29.88,29.74,24,8,24,0.00
2013-3-22,60.8,53.2,47.3,44.8,37.0,23.6,87,58,26,29.85,29.74,23,8,23,0.00
2013-3-23,67.3,53.8,48.0,44.5,39.2,30.0,85,60,30,29.85,29.76,20,7,20,0.00
2013-3-24,58.1,50.5,46.8,47.2,45.2,43.4,94,83,63,29.82,29.68,24,10,24,0.00
2013-3-25,52.3,48.8,46.6,46.2,43.8,41.3,94,83,69,29.79,29.68,24,11,24,0.00
2013-3-26,56.5,51.2,47.8,48.3,45.2,42.7,93,81,64,29.76,29.68,23,10,23,0.00
2013-3-27,59.7,54.4,49.3,53.9,50.5,46.8,96,87,74,29.76,29.68,16,4,16,0.00
2013-3-28,64.0,56.4,52.9,56.0,52.8,49.4,98,88,62,29.82,29.74,18,6,18,0.00
2013-3-29,73.8,55.6,49.8,59.1,51.7,48.8,98,89,46,29.82,29.74,21,7,21,0.00
2013-3-30,67.1,56.5,51.1,57.4,52.0,47.6,98,87,52,29.79,29.68,16,6,16,0.08
2013-3-31,64.8,58.0,54.5,56.3,52.7,49.9,95,83,67,29.79,29.71,17,4,17,0.25